User: anonymous   Login
Location: Unspecified
(44.0704°N, 88.6889°W)
Time: 09:24:21
(UTC+02:00)
Language:

CZ-3 Stage 3 - Orbit

View from above orbital plane
View from above orbital plane
View from above satellite
View from above satellite

Ground track
Ground track

The orbit data is extracted from the following two-line orbital elements,

1 14900U 84035B   20223.39429602 -.00000186  00000-0 -88723-4 0  9997
2 14900  31.1540   9.8293 7163238 255.3499  21.8777  2.33892145241666
Epoch (UTC): 10 August 2020 09:27:47
Eccentricity: 0.7163238
inclination: 31.1540°
perigee height: 422 km
apogee height: 34767 km
right ascension of ascending node: 9.8293°
argument of perigee: 255.3499°
revolutions per day: 2.33892145
mean anomaly at epoch: 21.8777°
orbit number at epoch: 24166

The dashed part of the orbit path shows where the satellite is in the earth's shadow,  

DLR